Time,TemperatureF,DewpointF,PressureIn,WindDirection,WindDirectionDegrees,WindSpeedMPH,WindSpeedGustMPH,Humidity,HourlyPrecipIn,Conditions,Clouds,dailyrainin,SoftwareType,DateUTC
2013-09-30 00:00:00,50.8,48.8,30.04,SE,124,0.0,0.0,93,0.00,,---,0.00,VWS V14.01,2013-09-30 04:00:00,
2013-09-30 00:01:00,50.8,48.8,30.04,SE,124,0.0,0.0,93,0.00,,---,0.00,VWS V14.01,2013-09-30 04:01:00,
2013-09-30 00:02:00,50.8,49.1,30.04,SE,124,0.0,0.0,94,0.00,,---,0.00,VWS V14.01,2013-09-30 04:02:00,
2013-09-30 00:05:00,50.8,49.1,30.04,SE,124,0.0,1.0,94,0.00,,---,0.00,VWS V14.01,2013-09-30 04:05:00,
2013-09-30 00:07:00,50.8,49.1,30.04,SE,124,0.0,1.0,94,0.00,,---,0.00,VWS V14.01,2013-09-30 04:07:00,
2013-09-30 00:10:00,50.8,49.1,30.04,SE,124,0.0,1.0,94,0.00,,---,0.00,VWS V14.01,2013-09-30 04:10:00,
2013-09-30 00:12:00,50.8,49.1,30.04,SE,124,0.0,0.0,94,0.00,,---,0.00,VWS V14.01,2013-09-30 04:12:00,
2013-09-30 00:15:00,50.7,49.0,30.04,SE,124,0.0,1.0,94,0.00,,---,0.00,VWS V14.01,2013-09-30 04:15:00,
2013-09-30 00:17:00,50.7,49.0,30.04,SE,124,0.0,0.0,94,0.00,,---,0.00,VWS V14.01,2013-09-30 04:17:00,
2013-09-30 00:20:00,50.7,49.0,30.04,SE,124,0.0,1.0,94,0.00,,---,0.00,VWS V14.01,2013-09-30 04:20:00,
2013-09-30 00:22:00,50.7,49.0,30.04,SE,124,0.0,0.0,94,0.00,,---,0.00,VWS V14.01,2013-09-30 04:22:00,
2013-09-30 00:25:00,50.8,49.1,30.04,SE,124,0.0,0.0,94,0.00,,---,0.00,VWS V14.01,2013-09-30 04:25:00,
2013-09-30 00:27:00,50.8,49.1,30.03,SE,124,0.0,0.0,94,0.00,,---,0.00,VWS V14.01,2013-09-30 04:27:00,
2013-09-30 00:30:00,50.8,49.4,30.03,SE,124,0.0,0.0,95,0.00,,---,0.00,VWS V14.01,2013-09-30 04:30:00,
2013-09-30 00:32:00,50.8,49.1,30.03,SE,124,0.0,0.0,94,0.00,,---,0.00,VWS V14.01,2013-09-30 04:32:00,
2013-09-30 00:35:00,50.8,49.1,30.03,SE,124,0.0,0.0,94,0.00,,---,0.00,VWS V14.01,2013-09-30 04:35:00,
2013-09-30 00:37:00,50.8,49.1,30.03,SE,124,0.0,0.0,94,0.00,,---,0.00,VWS V14.01,2013-09-30 04:37:00,
2013-09-30 00:40:00,50.8,49.1,30.03,SE,124,0.0,0.0,94,0.00,,---,0.00,VWS V14.01,2013-09-30 04:40:00,
2013-09-30 00:42:00,50.8,49.1,30.03,SE,124,0.0,0.0,94,0.00,,---,0.00,VWS V14.01,2013-09-30 04:42:00,
2013-09-30 00:45:00,50.8,49.1,30.03,SE,124,0.0,0.0,94,0.00,,---,0.00,VWS V14.01,2013-09-30 04:45:00,
2013-09-30 00:47:00,50.8,49.4,30.03,SE,124,0.0,0.0,95,0.00,,---,0.00,VWS V14.01,2013-09-30 04:47:00,
2013-09-30 00:50:00,50.8,49.4,30.03,SE,124,0.0,0.0,95,0.00,,---,0.00,VWS V14.01,2013-09-30 04:50:00,
2013-09-30 00:52:00,50.8,49.4,30.03,SE,124,0.0,0.0,95,0.00,,---,0.00,VWS V14.01,2013-09-30 04:52:00,
2013-09-30 00:55:00,50.8,49.4,30.03,SE,124,0.0,0.0,95,0.00,,---,0.00,VWS V14.01,2013-09-30 04:55:00,
2013-09-30 00:57:00,50.8,49.1,30.03,SE,124,0.0,0.0,94,0.00,,---,0.00,VWS V14.01,2013-09-30 04:57:00,
2013-09-30 01:00:00,50.8,49.1,30.03,SE,124,0.0,0.0,94,0.00,,---,0.00,VWS V14.01,2013-09-30 05:00:00,
2013-09-30 01:02:00,50.7,49.3,30.03,SE,124,0.0,0.0,95,0.00,,---,0.00,VWS V14.01,2013-09-30 05:02:00,
2013-09-30 01:05:00,50.7,49.3,30.03,SE,124,0.0,0.0,95,0.00,,---,0.00,VWS V14.01,2013-09-30 05:05:00,
2013-09-30 01:07:00,50.7,49.3,30.03,SE,124,0.0,0.0,95,0.00,,---,0.00,VWS V14.01,2013-09-30 05:07:00,
2013-09-30 01:10:00,50.5,49.1,30.03,SE,124,0.0,0.0,95,0.00,,---,0.00,VWS V14.01,2013-09-30 05:10:00,
2013-09-30 01:12:00,50.5,49.1,30.03,SE,124,0.0,0.0,95,0.00,,---,0.00,VWS V14.01,2013-09-30 05:12:00,
2013-09-30 01:15:00,50.5,49.1,30.03,SE,124,0.0,0.0,95,0.00,,---,0.00,VWS V14.01,2013-09-30 05:15:00,
2013-09-30 01:17:00,50.5,49.1,30.03,SE,124,0.0,0.0,95,0.00,,---,0.00,VWS V14.01,2013-09-30 05:17:00,
2013-09-30 01:20:00,50.4,49.0,30.03,SE,124,0.0,0.0,95,0.00,,---,0.00,VWS V14.01,2013-09-30 05:20:00,
2013-09-30 01:22:00,50.4,49.0,30.03,SE,124,0.0,0.0,95,0.00,,---,0.00,VWS V14.01,2013-09-30 05:22:00,
2013-09-30 01:25:00,50.4,49.0,30.03,SE,124,0.0,0.0,95,0.00,,---,0.00,VWS V14.01,2013-09-30 05:25:00,
2013-09-30 01:27:00,50.2,48.8,30.03,SE,124,0.0,0.0,95,0.00,,---,0.00,VWS V14.01,2013-09-30 05:27:00,
2013-09-30 01:30:00,50.2,48.8,30.03,SE,124,0.0,0.0,95,0.00,,---,0.00,VWS V14.01,2013-09-30 05:30:00,
2013-09-30 01:32:00,50.1,48.7,30.03,SE,124,0.0,0.0,95,0.00,,---,0.00,VWS V14.01,2013-09-30 05:32:00,
2013-09-30 01:35:00,50.1,48.7,30.03,SE,124,0.0,0.0,95,0.00,,---,0.00,VWS V14.01,2013-09-30 05:35:00,
2013-09-30 01:37:00,50.1,48.7,30.03,SE,124,0.0,0.0,95,0.00,,---,0.00,VWS V14.01,2013-09-30 05:37:00,
2013-09-30 01:40:00,49.9,48.5,30.03,SE,124,0.0,0.0,95,0.00,,---,0.00,VWS V14.01,2013-09-30 05:40:00,
2013-09-30 01:42:00,49.9,48.5,30.03,SE,124,0.0,0.0,95,0.00,,---,0.00,VWS V14.01,2013-09-30 05:42:00,
2013-09-30 01:45:00,49.9,48.5,30.03,SE,124,0.0,0.0,95,0.00,,---,0.00,VWS V14.01,2013-09-30 05:45:00,
2013-09-30 01:47:00,49.8,48.7,30.03,SE,124,0.0,0.0,96,0.00,,---,0.00,VWS V14.01,2013-09-30 05:47:00,
2013-09-30 01:50:00,49.8,48.7,30.03,SE,124,0.0,0.0,96,0.00,,---,0.00,VWS V14.01,2013-09-30 05:50:00,
2013-09-30 01:52:00,49.8,48.7,30.03,SE,124,0.0,0.0,96,0.00,,---,0.00,VWS V14.01,2013-09-30 05:52:00,
2013-09-30 01:55:00,49.8,48.7,30.03,SE,124,0.0,0.0,96,0.00,,---,0.00,VWS V14.01,2013-09-30 05:55:00,
2013-09-30 01:57:00,49.8,48.7,30.03,SE,124,0.0,0.0,96,0.00,,---,0.00,VWS V14.01,2013-09-30 05:57:00,
2013-09-30 02:00:00,49.8,48.7,30.03,SE,124,0.0,0.0,96,0.00,,---,0.00,VWS V14.01,2013-09-30 06:00:00,
2013-09-30 02:02:00,49.6,48.5,30.03,SE,124,0.0,0.0,96,0.00,,---,0.00,VWS V14.01,2013-09-30 06:02:00,
2013-09-30 02:05:00,49.6,48.5,30.03,SE,124,0.0,0.0,96,0.00,,---,0.00,VWS V14.01,2013-09-30 06:05:00,
2013-09-30 02:07:00,49.6,48.5,30.03,SE,124,0.0,0.0,96,0.00,,---,0.00,VWS V14.01,2013-09-30 06:07:00,
2013-09-30 02:10:00,49.5,48.4,30.03,SE,124,0.0,0.0,96,0.00,,---,0.00,VWS V14.01,2013-09-30 06:10:00,
2013-09-30 02:12:00,49.5,48.4,30.03,SE,124,0.0,0.0,96,0.00,,---,0.00,VWS V14.01,2013-09-30 06:12:00,
2013-09-30 02:15:00,49.4,48.3,30.03,SE,124,0.0,0.0,96,0.00,,---,0.00,VWS V14.01,2013-09-30 06:15:00,
2013-09-30 02:17:00,49.4,48.3,30.03,SE,124,0.0,1.0,96,0.00,,---,0.00,VWS V14.01,2013-09-30 06:17:00,
2013-09-30 02:20:00,49.4,48.3,30.03,South,171,0.0,1.0,96,0.00,,---,0.00,VWS V14.01,2013-09-30 06:20:00,
2013-09-30 02:22:00,49.2,48.1,30.04,South,171,0.0,0.0,96,0.00,,---,0.00,VWS V14.01,2013-09-30 06:22:00,
2013-09-30 02:25:00,49.2,48.1,30.03,South,171,0.0,0.0,96,0.00,,---,0.00,VWS V14.01,2013-09-30 06:25:00,
2013-09-30 02:27:00,49.2,48.1,30.03,South,171,0.0,0.0,96,0.00,,---,0.00,VWS V14.01,2013-09-30 06:27:00,
2013-09-30 02:30:00,49.1,48.0,30.04,South,171,0.0,0.0,96,0.00,,---,0.00,VWS V14.01,2013-09-30 06:30:00,
2013-09-30 02:32:00,49.1,48.3,30.03,South,171,0.0,0.0,97,0.00,,---,0.00,VWS V14.01,2013-09-30 06:32:00,
2013-09-30 02:35:00,49.1,48.3,30.03,South,171,0.0,0.0,97,0.00,,---,0.00,VWS V14.01,2013-09-30 06:35:00,
2013-09-30 02:37:00,49.1,48.3,30.03,South,171,0.0,0.0,97,0.00,,---,0.00,VWS V14.01,2013-09-30 06:37:00,
2013-09-30 02:40:00,49.1,48.3,30.03,South,171,0.0,0.0,97,0.00,,---,0.00,VWS V14.01,2013-09-30 06:40:00,
2013-09-30 02:42:00,48.9,48.1,30.03,South,171,0.0,0.0,97,0.00,,---,0.00,VWS V14.01,2013-09-30 06:42:00,
2013-09-30 02:45:00,48.9,48.1,30.03,South,171,0.0,0.0,97,0.00,,---,0.00,VWS V14.01,2013-09-30 06:45:00,
2013-09-30 02:47:00,48.9,48.1,30.03,South,171,0.0,0.0,97,0.00,,---,0.00,VWS V14.01,2013-09-30 06:47:00,
2013-09-30 02:50:00,48.9,48.1,30.03,South,171,0.0,0.0,97,0.00,,---,0.00,VWS V14.01,2013-09-30 06:50:00,
2013-09-30 02:52:00,48.9,48.1,30.03,South,171,0.0,0.0,97,0.00,,---,0.00,VWS V14.01,2013-09-30 06:52:00,
2013-09-30 02:55:00,48.9,48.1,30.03,South,171,0.0,0.0,97,0.00,,---,0.00,VWS V14.01,2013-09-30 06:55:00,
2013-09-30 02:57:00,48.9,48.1,30.03,South,171,0.0,0.0,97,0.00,,---,0.00,VWS V14.01,2013-09-30 06:57:00,
2013-09-30 03:00:00,48.9,48.1,30.03,South,171,0.0,0.0,97,0.00,,---,0.00,VWS V14.01,2013-09-30 07:00:00,
2013-09-30 03:02:00,48.9,48.1,30.03,South,171,0.0,0.0,97,0.00,,---,0.00,VWS V14.01,2013-09-30 07:02:00,
2013-09-30 03:05:00,48.9,48.1,30.03,South,171,0.0,0.0,97,0.00,,---,0.00,VWS V14.01,2013-09-30 07:05:00,
2013-09-30 03:07:00,48.9,48.1,30.02,South,171,0.0,0.0,97,0.00,,---,0.00,VWS V14.01,2013-09-30 07:07:00,
2013-09-30 03:10:00,48.9,48.1,30.02,South,171,0.0,0.0,97,0.00,,---,0.00,VWS V14.01,2013-09-30 07:10:00,
2013-09-30 03:13:00,48.9,48.1,30.02,South,171,0.0,0.0,97,0.00,,---,0.00,VWS V14.01,2013-09-30 07:13:00,
2013-09-30 03:15:00,48.8,48.0,30.02,South,171,0.0,0.0,97,0.00,,---,0.00,VWS V14.01,2013-09-30 07:15:00,
2013-09-30 03:18:00,48.8,48.0,30.02,South,171,0.0,0.0,97,0.00,,---,0.00,VWS V14.01,2013-09-30 07:18:00,
2013-09-30 03:20:00,48.8,48.0,30.02,South,171,0.0,0.0,97,0.00,,---,0.00,VWS V14.01,2013-09-30 07:20:00,
2013-09-30 03:23:00,48.8,48.0,30.02,South,171,0.0,1.0,97,0.00,,---,0.00,VWS V14.01,2013-09-30 07:23:00,
2013-09-30 03:25:00,48.6,47.8,30.02,South,171,0.0,1.0,97,0.00,,---,0.00,VWS V14.01,2013-09-30 07:25:00,
2013-09-30 03:28:00,48.6,47.8,30.02,South,171,0.0,0.0,97,0.00,,---,0.00,VWS V14.01,2013-09-30 07:28:00,
2013-09-30 03:30:00,48.6,47.8,30.02,South,171,0.0,0.0,97,0.00,,---,0.00,VWS V14.01,2013-09-30 07:30:00,
2013-09-30 03:33:00,48.6,47.8,30.03,South,171,0.0,0.0,97,0.00,,---,0.00,VWS V14.01,2013-09-30 07:33:00,
2013-09-30 03:35:00,48.5,47.7,30.03,South,171,0.0,0.0,97,0.00,,---,0.00,VWS V14.01,2013-09-30 07:35:00,
2013-09-30 03:37:00,48.5,47.7,30.03,South,171,0.0,0.0,97,0.00,,---,0.00,VWS V14.01,2013-09-30 07:37:00,
2013-09-30 03:40:00,48.3,47.5,30.03,South,171,0.0,0.0,97,0.00,,---,0.00,VWS V14.01,2013-09-30 07:40:00,
2013-09-30 03:42:00,48.3,47.5,30.03,South,171,0.0,0.0,97,0.00,,---,0.00,VWS V14.01,2013-09-30 07:42:00,
2013-09-30 03:45:00,48.3,47.5,30.03,South,171,0.0,0.0,97,0.00,,---,0.00,VWS V14.01,2013-09-30 07:45:00,
2013-09-30 03:47:00,48.2,47.4,30.03,South,171,0.0,0.0,97,0.00,,---,0.00,VWS V14.01,2013-09-30 07:47:00,
2013-09-30 03:50:00,48.2,47.4,30.03,South,171,0.0,0.0,97,0.00,,---,0.00,VWS V14.01,2013-09-30 07:50:00,
2013-09-30 03:52:00,48.2,47.4,30.03,South,171,0.0,0.0,97,0.00,,---,0.00,VWS V14.01,2013-09-30 07:52:00,
2013-09-30 03:55:00,48.2,47.4,30.03,South,171,0.0,0.0,97,0.00,,---,0.00,VWS V14.01,2013-09-30 07:55:00,
2013-09-30 03:57:00,48.0,47.2,30.03,South,171,0.0,0.0,97,0.00,,---,0.00,VWS V14.01,2013-09-30 07:57:00,
2013-09-30 04:00:00,48.0,47.2,30.03,South,171,0.0,0.0,97,0.00,,---,0.00,VWS V14.01,2013-09-30 08:00:00,
2013-09-30 04:02:00,48.0,47.2,30.03,South,171,0.0,0.0,97,0.00,,---,0.00,VWS V14.01,2013-09-30 08:02:00,
2013-09-30 04:05:00,47.9,47.1,30.03,South,171,0.0,0.0,97,0.00,,---,0.00,VWS V14.01,2013-09-30 08:05:00,
2013-09-30 04:07:00,47.9,47.1,30.03,South,171,0.0,0.0,97,0.00,,---,0.00,VWS V14.01,2013-09-30 08:07:00,
2013-09-30 04:10:00,47.9,47.1,30.03,South,171,0.0,0.0,97,0.00,,---,0.00,VWS V14.01,2013-09-30 08:10:00,
2013-09-30 04:12:00,47.7,46.9,30.03,South,171,0.0,0.0,97,0.00,,---,0.00,VWS V14.01,2013-09-30 08:12:00,
2013-09-30 04:15:00,47.7,46.9,30.03,South,171,0.0,0.0,97,0.00,,---,0.00,VWS V14.01,2013-09-30 08:15:00,
2013-09-30 04:17:00,47.7,46.9,30.03,South,171,0.0,0.0,97,0.00,,---,0.00,VWS V14.01,2013-09-30 08:17:00,
2013-09-30 04:20:00,47.7,46.9,30.03,South,171,0.0,0.0,97,0.00,,---,0.00,VWS V14.01,2013-09-30 08:20:00,
2013-09-30 04:22:00,47.7,47.2,30.03,South,171,0.0,0.0,98,0.00,,---,0.00,VWS V14.01,2013-09-30 08:22:00,
2013-09-30 04:25:00,47.7,47.2,30.03,South,171,0.0,0.0,98,0.00,,---,0.00,VWS V14.01,2013-09-30 08:25:00,
2013-09-30 04:27:00,47.7,47.2,30.03,South,171,0.0,0.0,98,0.00,,---,0.00,VWS V14.01,2013-09-30 08:27:00,
2013-09-30 04:30:00,47.7,47.2,30.03,South,171,0.0,0.0,98,0.00,,---,0.00,VWS V14.01,2013-09-30 08:30:00,
2013-09-30 04:32:00,47.6,47.1,30.03,South,171,0.0,0.0,98,0.00,,---,0.00,VWS V14.01,2013-09-30 08:32:00,
2013-09-30 04:35:00,47.6,47.1,30.03,South,171,0.0,0.0,98,0.00,,---,0.00,VWS V14.01,2013-09-30 08:35:00,
2013-09-30 04:37:00,47.6,47.1,30.03,South,171,0.0,0.0,98,0.00,,---,0.00,VWS V14.01,2013-09-30 08:37:00,
2013-09-30 04:40:00,47.6,47.1,30.03,South,171,0.0,0.0,98,0.00,,---,0.00,VWS V14.01,2013-09-30 08:40:00,
2013-09-30 04:42:00,47.4,46.9,30.03,South,171,0.0,0.0,98,0.00,,---,0.00,VWS V14.01,2013-09-30 08:42:00,
2013-09-30 04:45:00,47.4,46.9,30.03,South,171,0.0,0.0,98,0.00,,---,0.00,VWS V14.01,2013-09-30 08:45:00,
2013-09-30 04:48:00,47.4,46.9,30.03,South,171,0.0,0.0,98,0.00,,---,0.00,VWS V14.01,2013-09-30 08:48:00,
2013-09-30 04:50:00,47.4,46.9,30.03,South,171,0.0,0.0,98,0.00,,---,0.00,VWS V14.01,2013-09-30 08:50:00,
2013-09-30 04:52:00,47.3,46.8,30.03,South,171,0.0,0.0,98,0.00,,---,0.00,VWS V14.01,2013-09-30 08:52:00,
2013-09-30 04:55:00,47.3,46.8,30.03,South,171,0.0,0.0,98,0.00,,---,0.00,VWS V14.01,2013-09-30 08:55:00,
2013-09-30 04:57:00,47.3,46.8,30.03,South,171,0.0,0.0,98,0.00,,---,0.00,VWS V14.01,2013-09-30 08:57:00,
2013-09-30 05:00:00,47.3,46.8,30.03,South,171,0.0,0.0,98,0.00,,---,0.00,VWS V14.01,2013-09-30 09:00:00,
2013-09-30 05:03:00,47.1,46.6,30.03,South,171,0.0,0.0,98,0.00,,---,0.00,VWS V14.01,2013-09-30 09:03:00,
2013-09-30 05:05:00,47.1,46.6,30.03,South,171,0.0,0.0,98,0.00,,---,0.00,VWS V14.01,2013-09-30 09:05:00,
2013-09-30 05:08:00,47.1,46.6,30.04,South,171,0.0,0.0,98,0.00,,---,0.00,VWS V14.01,2013-09-30 09:08:00,
2013-09-30 05:10:00,47.1,46.6,30.04,South,171,0.0,0.0,98,0.00,,---,0.00,VWS V14.01,2013-09-30 09:10:00,
2013-09-30 05:13:00,47.0,46.5,30.03,South,171,0.0,0.0,98,0.00,,---,0.00,VWS V14.01,2013-09-30 09:13:00,
2013-09-30 05:15:00,47.0,46.5,30.03,South,171,0.0,0.0,98,0.00,,---,0.00,VWS V14.01,2013-09-30 09:15:00,
2013-09-30 05:18:00,47.0,46.5,30.04,South,171,0.0,0.0,98,0.00,,---,0.00,VWS V14.01,2013-09-30 09:18:00,
2013-09-30 05:20:00,47.0,46.5,30.04,South,171,0.0,0.0,98,0.00,,---,0.00,VWS V14.01,2013-09-30 09:20:00,
2013-09-30 05:23:00,47.0,46.5,30.04,South,171,0.0,0.0,98,0.00,,---,0.00,VWS V14.01,2013-09-30 09:23:00,
2013-09-30 05:25:00,47.0,46.5,30.04,South,171,0.0,0.0,98,0.00,,---,0.00,VWS V14.01,2013-09-30 09:25:00,
2013-09-30 05:28:00,47.0,46.7,30.04,South,171,0.0,0.0,99,0.00,,---,0.00,VWS V14.01,2013-09-30 09:28:00,
2013-09-30 05:30:00,47.0,46.7,30.04,South,171,0.0,0.0,99,0.00,,---,0.00,VWS V14.01,2013-09-30 09:30:00,
2013-09-30 05:33:00,47.0,46.7,30.04,South,171,0.0,0.0,99,0.00,,---,0.00,VWS V14.01,2013-09-30 09:33:00,
2013-09-30 05:35:00,47.0,46.7,30.04,South,171,0.0,0.0,99,0.00,,---,0.00,VWS V14.01,2013-09-30 09:35:00,
2013-09-30 05:38:00,47.0,46.7,30.04,South,171,0.0,0.0,99,0.00,,---,0.00,VWS V14.01,2013-09-30 09:38:00,
2013-09-30 05:40:00,47.0,46.5,30.04,South,171,0.0,0.0,98,0.00,,---,0.00,VWS V14.01,2013-09-30 09:40:00,
2013-09-30 05:43:00,46.8,46.3,30.04,South,171,0.0,0.0,98,0.00,,---,0.00,VWS V14.01,2013-09-30 09:43:00,
2013-09-30 05:45:00,46.8,46.3,30.04,South,171,0.0,0.0,98,0.00,,---,0.00,VWS V14.01,2013-09-30 09:45:00,
2013-09-30 05:48:00,46.8,46.5,30.04,South,171,0.0,0.0,99,0.00,,---,0.00,VWS V14.01,2013-09-30 09:48:00,
2013-09-30 05:50:00,46.8,46.5,30.04,South,171,0.0,0.0,99,0.00,,---,0.00,VWS V14.01,2013-09-30 09:50:00,
2013-09-30 05:53:00,46.8,46.5,30.04,South,171,0.0,0.0,99,0.00,,---,0.00,VWS V14.01,2013-09-30 09:53:00,
2013-09-30 05:55:00,46.8,46.5,30.04,South,171,0.0,0.0,99,0.00,,---,0.00,VWS V14.01,2013-09-30 09:55:00,
2013-09-30 05:58:00,46.8,46.5,30.04,South,171,0.0,0.0,99,0.00,,---,0.00,VWS V14.01,2013-09-30 09:58:00,
2013-09-30 06:00:00,46.8,46.5,30.04,South,171,0.0,0.0,99,0.00,,---,0.00,VWS V14.01,2013-09-30 10:00:00,
2013-09-30 06:03:00,46.8,46.5,30.04,South,171,0.0,0.0,99,0.00,,---,0.00,VWS V14.01,2013-09-30 10:03:00,
2013-09-30 06:05:00,46.8,46.5,30.04,South,171,0.0,1.0,99,0.00,,---,0.00,VWS V14.01,2013-09-30 10:05:00,
2013-09-30 06:08:00,46.8,46.5,30.04,South,171,0.0,0.0,99,0.00,,---,0.00,VWS V14.01,2013-09-30 10:08:00,
2013-09-30 06:10:00,46.8,46.5,30.04,South,171,0.0,0.0,99,0.00,,---,0.00,VWS V14.01,2013-09-30 10:10:00,
2013-09-30 06:13:00,46.8,46.5,30.04,South,171,0.0,0.0,99,0.00,,---,0.00,VWS V14.01,2013-09-30 10:13:00,
2013-09-30 06:15:00,46.8,46.5,30.04,South,171,0.0,0.0,99,0.00,,---,0.00,VWS V14.01,2013-09-30 10:15:00,
2013-09-30 06:18:00,46.7,46.4,30.04,South,171,0.0,0.0,99,0.00,,---,0.00,VWS V14.01,2013-09-30 10:18:00,
2013-09-30 06:20:00,46.7,46.4,30.04,South,171,0.0,0.0,99,0.00,,---,0.00,VWS V14.01,2013-09-30 10:20:00,
2013-09-30 06:23:00,46.7,46.4,30.04,South,171,0.0,0.0,99,0.00,,---,0.00,VWS V14.01,2013-09-30 10:23:00,
2013-09-30 06:25:00,46.7,46.4,30.05,South,171,0.0,0.0,99,0.00,,---,0.00,VWS V14.01,2013-09-30 10:25:00,
2013-09-30 06:28:00,46.7,46.4,30.05,South,171,0.0,0.0,99,0.00,,---,0.00,VWS V14.01,2013-09-30 10:28:00,
2013-09-30 06:30:00,46.7,46.4,30.05,South,171,0.0,0.0,99,0.00,,---,0.00,VWS V14.01,2013-09-30 10:30:00,
2013-09-30 06:33:00,46.5,46.2,30.04,South,171,0.0,0.0,99,0.00,,---,0.00,VWS V14.01,2013-09-30 10:33:00,
2013-09-30 06:35:00,46.5,46.2,30.04,South,171,0.0,0.0,99,0.00,,---,0.00,VWS V14.01,2013-09-30 10:35:00,
2013-09-30 06:38:00,46.4,46.1,30.04,South,171,0.0,0.0,99,0.00,,---,0.00,VWS V14.01,2013-09-30 10:38:00,
2013-09-30 06:40:00,46.4,46.1,30.04,South,171,0.0,0.0,99,0.00,,---,0.00,VWS V14.01,2013-09-30 10:40:00,
2013-09-30 06:43:00,46.4,46.1,30.04,South,171,0.0,0.0,99,0.00,,---,0.00,VWS V14.01,2013-09-30 10:43:00,
2013-09-30 06:45:00,46.4,46.1,30.05,South,171,0.0,0.0,99,0.00,,---,0.00,VWS V14.01,2013-09-30 10:45:00,
2013-09-30 06:48:00,46.4,46.1,30.05,South,171,0.0,0.0,99,0.00,,---,0.00,VWS V14.01,2013-09-30 10:48:00,
2013-09-30 06:50:00,46.4,46.1,30.05,South,171,0.0,0.0,99,0.00,,---,0.00,VWS V14.01,2013-09-30 10:50:00,
2013-09-30 06:53:00,46.4,46.1,30.05,South,171,0.0,0.0,99,0.00,,---,0.00,VWS V14.01,2013-09-30 10:53:00,
2013-09-30 06:55:00,46.4,46.1,30.05,South,171,0.0,0.0,99,0.00,,---,0.00,VWS V14.01,2013-09-30 10:55:00,
2013-09-30 06:58:00,46.4,46.1,30.05,South,171,0.0,0.0,99,0.00,,---,0.00,VWS V14.01,2013-09-30 10:58:00,
2013-09-30 07:00:00,46.4,46.1,30.05,South,171,0.0,0.0,99,0.00,,---,0.00,VWS V14.01,2013-09-30 11:00:00,
2013-09-30 07:03:00,46.2,45.9,30.05,South,171,0.0,0.0,99,0.00,,---,0.00,VWS V14.01,2013-09-30 11:03:00,
2013-09-30 07:05:00,46.2,45.9,30.06,South,171,0.0,0.0,99,0.00,,---,0.00,VWS V14.01,2013-09-30 11:05:00,
2013-09-30 07:08:00,46.2,45.9,30.06,South,171,0.0,0.0,99,0.00,,---,0.00,VWS V14.01,2013-09-30 11:08:00,
2013-09-30 07:10:00,46.2,45.9,30.06,South,171,0.0,0.0,99,0.00,,---,0.00,VWS V14.01,2013-09-30 11:10:00,
2013-09-30 07:13:00,46.1,45.8,30.06,South,171,0.0,0.0,99,0.00,,---,0.00,VWS V14.01,2013-09-30 11:13:00,
2013-09-30 07:15:00,46.1,45.8,30.06,South,171,0.0,0.0,99,0.00,,---,0.00,VWS V14.01,2013-09-30 11:15:00,
2013-09-30 07:18:00,46.1,45.8,30.06,South,171,0.0,0.0,99,0.00,,---,0.00,VWS V14.01,2013-09-30 11:18:00,
2013-09-30 07:20:00,46.1,45.8,30.06,South,171,0.0,0.0,99,0.00,,---,0.00,VWS V14.01,2013-09-30 11:20:00,
2013-09-30 07:23:00,46.1,45.8,30.06,South,171,0.0,0.0,99,0.00,,---,0.00,VWS V14.01,2013-09-30 11:23:00,
2013-09-30 07:25:00,46.1,45.8,30.06,South,171,0.0,0.0,99,0.00,,---,0.00,VWS V14.01,2013-09-30 11:25:00,
2013-09-30 07:28:00,46.1,45.8,30.06,South,171,0.0,0.0,99,0.00,,---,0.00,VWS V14.01,2013-09-30 11:28:00,
2013-09-30 07:30:00,46.1,45.8,30.06,South,171,0.0,0.0,99,0.00,,---,0.00,VWS V14.01,2013-09-30 11:30:00,
2013-09-30 07:33:00,46.1,45.8,30.06,South,171,0.0,0.0,99,0.00,,---,0.00,VWS V14.01,2013-09-30 11:33:00,
2013-09-30 07:35:00,46.1,45.8,30.06,South,171,0.0,0.0,99,0.00,,---,0.00,VWS V14.01,2013-09-30 11:35:00,
2013-09-30 07:38:00,46.1,45.8,30.06,South,171,0.0,0.0,99,0.00,,---,0.00,VWS V14.01,2013-09-30 11:38:00,
2013-09-30 07:40:00,46.1,45.8,30.06,South,171,0.0,0.0,99,0.00,,---,0.00,VWS V14.01,2013-09-30 11:40:00,
2013-09-30 07:43:00,46.2,45.9,30.06,South,171,0.0,0.0,99,0.00,,---,0.00,VWS V14.01,2013-09-30 11:43:00,
2013-09-30 07:45:00,46.2,45.9,30.06,South,171,0.0,0.0,99,0.00,,---,0.00,VWS V14.01,2013-09-30 11:45:00,
2013-09-30 07:48:00,46.2,45.9,30.06,South,171,0.0,0.0,99,0.00,,---,0.00,VWS V14.01,2013-09-30 11:48:00,
2013-09-30 07:50:00,46.4,46.1,30.06,South,171,0.0,0.0,99,0.00,,---,0.00,VWS V14.01,2013-09-30 11:50:00,
2013-09-30 07:53:00,46.5,46.2,30.06,South,171,0.0,0.0,99,0.00,,---,0.00,VWS V14.01,2013-09-30 11:53:00,
2013-09-30 07:55:00,46.5,46.2,30.06,South,171,0.0,0.0,99,0.00,,---,0.00,VWS V14.01,2013-09-30 11:55:00,
2013-09-30 07:58:00,46.7,46.4,30.06,South,171,0.0,0.0,99,0.00,,---,0.00,VWS V14.01,2013-09-30 11:58:00,
2013-09-30 08:00:00,46.7,46.4,30.06,South,171,0.0,0.0,99,0.00,,---,0.00,VWS V14.01,2013-09-30 12:00:00,
2013-09-30 08:03:00,46.8,46.5,30.07,South,171,0.0,0.0,99,0.00,,---,0.00,VWS V14.01,2013-09-30 12:03:00,
2013-09-30 08:05:00,47.0,47.0,30.07,South,171,0.0,0.0,100,0.00,,---,0.00,VWS V14.01,2013-09-30 12:05:00,
2013-09-30 08:08:00,47.3,47.3,30.07,South,171,0.0,0.0,100,0.00,,---,0.00,VWS V14.01,2013-09-30 12:08:00,
2013-09-30 08:10:00,47.4,47.4,30.07,South,171,0.0,0.0,100,0.00,,---,0.00,VWS V14.01,2013-09-30 12:10:00,
2013-09-30 08:13:00,47.9,47.9,30.07,South,171,0.0,0.0,100,0.00,,---,0.00,VWS V14.01,2013-09-30 12:13:00,
2013-09-30 08:15:00,48.0,48.0,30.07,South,171,0.0,0.0,100,0.00,,---,0.00,VWS V14.01,2013-09-30 12:15:00,
2013-09-30 08:18:00,48.5,48.5,30.07,South,171,0.0,0.0,100,0.00,,---,0.00,VWS V14.01,2013-09-30 12:18:00,
2013-09-30 08:20:00,48.6,48.6,30.07,SE,132,0.0,1.0,100,0.00,,---,0.00,VWS V14.01,2013-09-30 12:20:00,
2013-09-30 08:23:00,48.9,48.9,30.07,SE,132,0.0,0.0,100,0.00,,---,0.00,VWS V14.01,2013-09-30 12:23:00,
2013-09-30 08:25:00,49.1,49.1,30.07,SE,132,0.0,0.0,100,0.00,,---,0.00,VWS V14.01,2013-09-30 12:25:00,
2013-09-30 08:28:00,49.5,49.5,30.07,SE,132,0.0,1.0,100,0.00,,---,0.00,VWS V14.01,2013-09-30 12:28:00,
2013-09-30 08:30:00,49.8,49.8,30.07,SE,132,0.0,1.0,100,0.00,,---,0.00,VWS V14.01,2013-09-30 12:30:00,
2013-09-30 08:33:00,50.2,50.2,30.07,SE,132,0.0,0.0,100,0.00,,---,0.00,VWS V14.01,2013-09-30 12:33:00,
2013-09-30 08:35:00,50.5,50.5,30.07,SE,132,0.0,0.0,100,0.00,,---,0.00,VWS V14.01,2013-09-30 12:35:00,
2013-09-30 08:38:00,51.1,51.1,30.07,SE,132,0.0,0.0,100,0.00,,---,0.00,VWS V14.01,2013-09-30 12:38:00,
2013-09-30 08:40:00,51.3,51.3,30.07,SSE,159,1.0,1.0,100,0.00,,---,0.00,VWS V14.01,2013-09-30 12:40:00,
2013-09-30 08:43:00,51.7,51.4,30.07,South,180,0.0,2.0,99,0.00,,---,0.00,VWS V14.01,2013-09-30 12:43:00,
2013-09-30 08:45:00,52.0,51.7,30.07,South,178,2.0,2.0,99,0.00,,---,0.00,VWS V14.01,2013-09-30 12:45:00,
2013-09-30 08:48:00,52.5,52.0,30.07,South,178,0.0,2.0,98,0.00,,---,0.00,VWS V14.01,2013-09-30 12:48:00,
2013-09-30 08:50:00,52.8,52.0,30.07,South,178,0.0,2.0,97,0.00,,---,0.00,VWS V14.01,2013-09-30 12:50:00,
2013-09-30 08:53:00,53.1,52.0,30.07,SSW,208,0.0,2.0,96,0.00,,---,0.00,VWS V14.01,2013-09-30 12:53:00,
2013-09-30 08:55:00,53.2,51.5,30.07,SSW,208,0.0,2.0,94,0.00,,---,0.00,VWS V14.01,2013-09-30 12:55:00,
2013-09-30 08:58:00,53.5,50.9,30.07,WSW,243,4.0,5.0,91,0.00,,---,0.00,VWS V14.01,2013-09-30 12:58:00,
2013-09-30 09:00:00,53.5,50.6,30.07,WSW,241,2.0,5.0,90,0.00,,---,0.00,VWS V14.01,2013-09-30 13:00:00,
2013-09-30 09:03:00,53.8,50.6,30.07,West,280,2.0,4.0,89,0.00,,---,0.00,VWS V14.01,2013-09-30 13:03:00,
2013-09-30 09:05:00,53.9,50.7,30.07,West,280,1.0,4.0,89,0.00,,---,0.00,VWS V14.01,2013-09-30 13:05:00,
2013-09-30 09:08:00,54.2,50.7,30.07,West,276,3.0,3.0,88,0.00,,---,0.00,VWS V14.01,2013-09-30 13:08:00,
2013-09-30 09:10:00,54.5,50.7,30.07,WSW,237,1.0,3.0,87,0.00,,---,0.00,VWS V14.01,2013-09-30 13:10:00,
2013-09-30 09:13:00,54.8,50.7,30.07,SW,236,0.0,5.0,86,0.00,,---,0.00,VWS V14.01,2013-09-30 13:13:00,
2013-09-30 09:15:00,55.0,50.9,30.07,SW,220,0.0,5.0,86,0.00,,---,0.00,VWS V14.01,2013-09-30 13:15:00,
2013-09-30 09:18:00,55.3,50.9,30.07,SW,218,3.0,5.0,85,0.00,,---,0.00,VWS V14.01,2013-09-30 13:18:00,
2013-09-30 09:20:00,55.6,51.2,30.07,SW,219,1.0,5.0,85,0.00,,---,0.00,VWS V14.01,2013-09-30 13:20:00,
2013-09-30 09:23:00,56.0,51.2,30.07,SW,226,1.0,3.0,84,0.00,,---,0.00,VWS V14.01,2013-09-30 13:23:00,
2013-09-30 09:25:00,56.3,51.2,30.07,West,260,3.0,3.0,83,0.00,,---,0.00,VWS V14.01,2013-09-30 13:25:00,
2013-09-30 09:28:00,56.7,51.6,30.07,WSW,238,2.0,3.0,83,0.00,,---,0.00,VWS V14.01,2013-09-30 13:28:00,
2013-09-30 09:30:00,57.2,52.4,30.07,South,186,1.0,3.0,84,0.00,,---,0.00,VWS V14.01,2013-09-30 13:30:00,
2013-09-30 09:33:00,57.5,51.0,30.07,West,259,3.0,4.0,79,0.00,,---,0.00,VWS V14.01,2013-09-30 13:33:00,
2013-09-30 09:35:00,57.5,51.4,30.07,West,259,0.0,4.0,80,0.00,,---,0.00,VWS V14.01,2013-09-30 13:35:00,
2013-09-30 09:38:00,58.0,51.9,30.07,WSW,239,2.0,5.0,80,0.00,,---,0.00,VWS V14.01,2013-09-30 13:38:00,
2013-09-30 09:40:00,58.1,51.6,30.07,West,279,4.0,5.0,79,0.00,,---,0.00,VWS V14.01,2013-09-30 13:40:00,
2013-09-30 09:43:00,58.3,51.5,30.07,SW,234,0.0,5.0,78,0.00,,---,0.00,VWS V14.01,2013-09-30 13:43:00,
2013-09-30 09:45:00,58.6,51.8,30.07,SW,231,2.0,5.0,78,0.00,,---,0.00,VWS V14.01,2013-09-30 13:45:00,
2013-09-30 09:48:00,58.9,51.7,30.06,West,271,1.0,3.0,77,0.00,,---,0.00,VWS V14.01,2013-09-30 13:48:00,
2013-09-30 09:50:00,59.0,51.5,30.06,WSW,252,3.0,5.0,76,0.00,,---,0.00,VWS V14.01,2013-09-30 13:50:00,
2013-09-30 09:53:00,59.0,51.1,30.06,West,275,0.0,5.0,75,0.00,,---,0.00,VWS V14.01,2013-09-30 13:53:00,
2013-09-30 09:55:00,59.2,51.7,30.06,West,275,2.0,5.0,76,0.00,,---,0.00,VWS V14.01,2013-09-30 13:55:00,
2013-09-30 09:58:00,59.8,51.9,30.06,SW,219,0.0,4.0,75,0.00,,---,0.00,VWS V14.01,2013-09-30 13:58:00,
2013-09-30 10:00:00,60.1,52.2,30.06,SW,215,0.0,4.0,75,0.00,,---,0.00,VWS V14.01,2013-09-30 14:00:00,
2013-09-30 10:03:00,60.5,51.8,30.06,SW,234,2.0,3.0,73,0.00,,---,0.00,VWS V14.01,2013-09-30 14:03:00,
2013-09-30 10:05:00,60.7,51.6,30.06,SW,228,2.0,4.0,72,0.00,,---,0.00,VWS V14.01,2013-09-30 14:05:00,
2013-09-30 10:08:00,61.2,52.5,30.06,SW,228,1.0,2.0,73,0.00,,---,0.00,VWS V14.01,2013-09-30 14:08:00,
2013-09-30 10:10:00,61.5,52.4,30.06,WSW,239,2.0,4.0,72,0.00,,---,0.00,VWS V14.01,2013-09-30 14:10:00,
2013-09-30 10:13:00,62.1,53.3,30.06,South,190,1.0,4.0,73,0.00,,---,0.00,VWS V14.01,2013-09-30 14:13:00,
2013-09-30 10:15:00,62.4,52.5,30.06,South,175,0.0,4.0,70,0.00,,---,0.00,VWS V14.01,2013-09-30 14:15:00,
2013-09-30 10:18:00,62.9,52.6,30.06,SSW,197,3.0,3.0,69,0.00,,---,0.00,VWS V14.01,2013-09-30 14:18:00,
2013-09-30 10:20:00,63.1,52.8,30.06,ESE,116,2.0,3.0,69,0.00,,---,0.00,VWS V14.01,2013-09-30 14:20:00,
2013-09-30 10:23:00,63.5,52.4,30.06,SSE,167,2.0,5.0,67,0.00,,---,0.00,VWS V14.01,2013-09-30 14:23:00,
2013-09-30 10:25:00,63.7,52.5,30.06,SSE,155,0.0,5.0,67,0.00,,---,0.00,VWS V14.01,2013-09-30 14:25:00,
2013-09-30 10:28:00,64.0,52.4,30.06,West,260,0.0,4.0,66,0.00,,---,0.00,VWS V14.01,2013-09-30 14:28:00,
2013-09-30 10:30:00,64.2,53.0,30.06,West,272,0.0,5.0,67,0.00,,---,0.00,VWS V14.01,2013-09-30 14:30:00,
2013-09-30 10:33:00,64.3,53.1,30.05,West,261,5.0,5.0,67,0.00,,---,0.00,VWS V14.01,2013-09-30 14:33:00,
2013-09-30 10:35:00,64.3,52.7,30.05,SW,233,3.0,7.0,66,0.00,,---,0.00,VWS V14.01,2013-09-30 14:35:00,
2013-09-30 10:38:00,64.5,52.9,30.05,WSW,238,1.0,6.0,66,0.00,,---,0.00,VWS V14.01,2013-09-30 14:38:00,
2013-09-30 10:40:00,64.7,53.1,30.05,WSW,238,1.0,6.0,66,0.00,,---,0.00,VWS V14.01,2013-09-30 14:40:00,
2013-09-30 10:43:00,65.2,52.7,30.05,SSW,199,1.0,3.0,64,0.00,,---,0.00,VWS V14.01,2013-09-30 14:43:00,
2013-09-30 10:45:00,65.5,52.6,30.05,SW,219,0.0,4.0,63,0.00,,---,0.00,VWS V14.01,2013-09-30 14:45:00,
2013-09-30 10:48:00,65.6,53.1,30.05,South,179,2.0,5.0,64,0.00,,---,0.00,VWS V14.01,2013-09-30 14:48:00,
2013-09-30 10:50:00,65.6,54.0,30.05,SE,135,3.0,5.0,66,0.00,,---,0.00,VWS V14.01,2013-09-30 14:50:00,
2013-09-30 10:53:00,66.4,54.3,30.05,SSW,202,4.0,5.0,65,0.00,,---,0.00,VWS V14.01,2013-09-30 14:53:00,
2013-09-30 10:55:00,66.8,53.8,30.05,South,169,3.0,5.0,63,0.00,,---,0.00,VWS V14.01,2013-09-30 14:55:00,
2013-09-30 10:58:00,67.4,53.5,30.05,South,180,0.0,4.0,61,0.00,,---,0.00,VWS V14.01,2013-09-30 14:58:00,
2013-09-30 11:00:00,67.6,53.2,30.05,SSE,162,2.0,4.0,60,0.00,,---,0.00,VWS V14.01,2013-09-30 15:00:00,
2013-09-30 11:03:00,67.9,54.4,30.05,SSE,153,2.0,3.0,62,0.00,,---,0.00,VWS V14.01,2013-09-30 15:03:00,
2013-09-30 11:05:00,68.1,54.6,30.05,SE,143,1.0,4.0,62,0.00,,---,0.00,VWS V14.01,2013-09-30 15:05:00,
2013-09-30 11:08:00,68.3,53.4,30.05,WSW,240,2.0,5.0,59,0.00,,---,0.00,VWS V14.01,2013-09-30 15:08:00,
2013-09-30 11:10:00,68.1,52.8,30.05,WNW,293,2.0,5.0,58,0.00,,---,0.00,VWS V14.01,2013-09-30 15:10:00,
2013-09-30 11:13:00,67.8,52.5,30.05,SW,226,1.0,5.0,58,0.00,,---,0.00,VWS V14.01,2013-09-30 15:13:00,
2013-09-30 11:15:00,67.8,52.0,30.05,SW,226,0.0,5.0,57,0.00,,---,0.00,VWS V14.01,2013-09-30 15:15:00,
2013-09-30 11:18:00,67.8,52.0,30.05,WNW,299,4.0,5.0,57,0.00,,---,0.00,VWS V14.01,2013-09-30 15:18:00,
2013-09-30 11:20:00,67.6,52.3,30.05,SSW,208,3.0,5.0,58,0.00,,---,0.00,VWS V14.01,2013-09-30 15:20:00,
2013-09-30 11:23:00,67.6,53.2,30.05,East,92,0.0,4.0,60,0.00,,---,0.00,VWS V14.01,2013-09-30 15:23:00,
2013-09-30 11:25:00,67.8,53.4,30.05,East,92,1.0,4.0,60,0.00,,---,0.00,VWS V14.01,2013-09-30 15:25:00,
2013-09-30 11:28:00,68.6,53.2,30.04,WSW,252,3.0,3.0,58,0.00,,---,0.00,VWS V14.01,2013-09-30 15:28:00,
2013-09-30 11:30:00,68.4,51.6,30.04,West,279,2.0,4.0,55,0.00,,---,0.00,VWS V14.01,2013-09-30 15:30:00,
2013-09-30 11:33:00,68.6,52.3,30.04,WSW,248,3.0,4.0,56,0.00,,---,0.00,VWS V14.01,2013-09-30 15:33:00,
2013-09-30 11:35:00,68.8,53.0,30.04,WSW,238,2.0,4.0,57,0.00,,---,0.00,VWS V14.01,2013-09-30 15:35:00,
2013-09-30 11:38:00,69.3,53.4,30.04,SW,227,3.0,5.0,57,0.00,,---,0.00,VWS V14.01,2013-09-30 15:38:00,
2013-09-30 11:40:00,69.4,53.0,30.04,West,269,2.0,5.0,56,0.00,,---,0.00,VWS V14.01,2013-09-30 15:40:00,
2013-09-30 11:43:00,69.8,52.9,30.04,West,277,2.0,4.0,55,0.00,,---,0.00,VWS V14.01,2013-09-30 15:43:00,
2013-09-30 11:45:00,69.8,52.4,30.04,SSW,198,1.0,5.0,54,0.00,,---,0.00,VWS V14.01,2013-09-30 15:45:00,
2013-09-30 11:48:00,70.1,53.2,30.04,West,259,3.0,4.0,55,0.00,,---,0.00,VWS V14.01,2013-09-30 15:48:00,
2013-09-30 11:50:00,70.1,53.2,30.04,West,272,3.0,4.0,55,0.00,,---,0.00,VWS V14.01,2013-09-30 15:50:00,
2013-09-30 11:53:00,70.1,52.7,30.04,WSW,249,3.0,4.0,54,0.00,,---,0.00,VWS V14.01,2013-09-30 15:53:00,
2013-09-30 11:55:00,70.1,52.2,30.04,SW,226,1.0,5.0,53,0.00,,---,0.00,VWS V14.01,2013-09-30 15:55:00,
2013-09-30 11:58:00,69.8,52.9,30.04,SW,222,0.0,4.0,55,0.00,,---,0.00,VWS V14.01,2013-09-30 15:58:00,
2013-09-30 12:00:00,69.8,52.4,30.04,SW,229,3.0,4.0,54,0.00,,---,0.00,VWS V14.01,2013-09-30 16:00:00,
2013-09-30 12:03:00,69.1,51.8,30.04,WSW,242,2.0,5.0,54,0.00,,---,0.00,VWS V14.01,2013-09-30 16:03:00,
2013-09-30 12:05:00,69.1,52.3,30.03,WNW,286,1.0,5.0,55,0.00,,---,0.00,VWS V14.01,2013-09-30 16:05:00,
2013-09-30 12:08:00,69.1,51.8,30.03,SW,219,0.0,3.0,54,0.00,,---,0.00,VWS V14.01,2013-09-30 16:08:00,
2013-09-30 12:10:00,69.1,52.8,30.03,SW,219,1.0,3.0,56,0.00,,---,0.00,VWS V14.01,2013-09-30 16:10:00,
2013-09-30 12:13:00,69.3,51.5,30.03,West,271,1.0,5.0,53,0.00,,---,0.00,VWS V14.01,2013-09-30 16:13:00,
2013-09-30 12:15:00,69.4,52.0,30.03,West,271,1.0,5.0,54,0.00,,---,0.00,VWS V14.01,2013-09-30 16:15:00,
2013-09-30 12:18:00,69.6,52.2,30.03,SW,230,3.0,5.0,54,0.00,,---,0.00,VWS V14.01,2013-09-30 16:18:00,
2013-09-30 12:20:00,69.8,51.9,30.03,WSW,246,2.0,5.0,53,0.00,,---,0.00,VWS V14.01,2013-09-30 16:20:00,
2013-09-30 12:23:00,69.9,52.5,30.03,SW,236,0.0,6.0,54,0.00,,---,0.00,VWS V14.01,2013-09-30 16:23:00,
2013-09-30 12:25:00,70.1,52.7,30.03,South,169,1.0,6.0,54,0.00,,---,0.00,VWS V14.01,2013-09-30 16:25:00,
2013-09-30 12:28:00,70.4,52.5,30.03,SSW,195,2.0,6.0,53,0.00,,---,0.00,VWS V14.01,2013-09-30 16:28:00,
2013-09-30 12:30:00,70.4,52.0,30.03,South,191,0.0,6.0,52,0.00,,---,0.00,VWS V14.01,2013-09-30 16:30:00,
2013-09-30 12:33:00,70.6,52.7,30.02,ESE,119,3.0,4.0,53,0.00,,---,0.00,VWS V14.01,2013-09-30 16:33:00,
2013-09-30 12:35:00,70.6,52.7,30.02,SSE,155,2.0,4.0,53,0.00,,---,0.00,VWS V14.01,2013-09-30 16:35:00,
2013-09-30 12:38:00,70.8,52.8,30.02,South,191,2.0,4.0,53,0.00,,---,0.00,VWS V14.01,2013-09-30 16:38:00,
2013-09-30 12:40:00,70.9,52.9,30.02,West,273,4.0,6.0,53,0.00,,---,0.00,VWS V14.01,2013-09-30 16:40:00,
2013-09-30 12:43:00,70.9,51.9,30.02,WNW,289,2.0,6.0,51,0.00,,---,0.00,VWS V14.01,2013-09-30 16:43:00,
2013-09-30 12:45:00,70.9,52.4,30.02,WNW,293,3.0,6.0,52,0.00,,---,0.00,VWS V14.01,2013-09-30 16:45:00,
2013-09-30 12:48:00,70.9,51.9,30.02,WNW,286,1.0,4.0,51,0.00,,---,0.00,VWS V14.01,2013-09-30 16:48:00,
2013-09-30 12:50:00,70.9,51.9,30.02,West,274,2.0,5.0,51,0.00,,---,0.00,VWS V14.01,2013-09-30 16:50:00,
2013-09-30 12:53:00,70.8,52.3,30.02,NE,50,1.0,3.0,52,0.00,,---,0.00,VWS V14.01,2013-09-30 16:53:00,
2013-09-30 12:55:00,70.9,52.4,30.02,NE,50,0.0,3.0,52,0.00,,---,0.00,VWS V14.01,2013-09-30 16:55:00,
2013-09-30 12:58:00,70.9,52.4,30.02,West,276,0.0,4.0,52,0.00,,---,0.00,VWS V14.01,2013-09-30 16:58:00,
2013-09-30 13:00:00,71.1,52.6,30.02,SSW,204,2.0,4.0,52,0.00,,---,0.00,VWS V14.01,2013-09-30 17:00:00,
2013-09-30 13:03:00,71.1,52.6,30.02,SE,142,1.0,3.0,52,0.00,,---,0.00,VWS V14.01,2013-09-30 17:03:00,
2013-09-30 13:05:00,71.3,52.3,30.01,SSW,200,2.0,3.0,51,0.00,,---,0.00,VWS V14.01,2013-09-30 17:05:00,
2013-09-30 13:08:00,71.3,51.7,30.01,West,266,3.0,6.0,50,0.00,,---,0.00,VWS V14.01,2013-09-30 17:08:00,
2013-09-30 13:10:00,71.3,52.3,30.01,WSW,256,2.0,6.0,51,0.00,,---,0.00,VWS V14.01,2013-09-30 17:10:00,
2013-09-30 13:13:00,71.5,51.4,30.01,WNW,293,1.0,5.0,49,0.00,,---,0.00,VWS V14.01,2013-09-30 17:13:00,
2013-09-30 13:15:00,71.5,51.4,30.01,West,261,2.0,5.0,49,0.00,,---,0.00,VWS V14.01,2013-09-30 17:15:00,
2013-09-30 13:18:00,71.6,52.5,30.01,WSW,253,0.0,5.0,51,0.00,,---,0.00,VWS V14.01,2013-09-30 17:18:00,
2013-09-30 13:20:00,71.8,52.7,30.01,West,271,3.0,5.0,51,0.00,,---,0.00,VWS V14.01,2013-09-30 17:20:00,
2013-09-30 13:23:00,72.0,52.9,30.00,WNW,301,1.0,3.0,51,0.00,,---,0.00,VWS V14.01,2013-09-30 17:23:00,
2013-09-30 13:25:00,72.0,52.4,30.01,NW,315,1.0,3.0,50,0.00,,---,0.00,VWS V14.01,2013-09-30 17:25:00,
2013-09-30 13:28:00,72.3,52.1,30.00,NNE,31,1.0,3.0,49,0.00,,---,0.00,VWS V14.01,2013-09-30 17:28:00,
2013-09-30 13:30:00,72.3,52.1,30.00,SE,131,2.0,3.0,49,0.00,,---,0.00,VWS V14.01,2013-09-30 17:30:00,
2013-09-30 13:33:00,72.5,52.3,30.00,ESE,109,1.0,5.0,49,0.00,,---,0.00,VWS V14.01,2013-09-30 17:33:00,
2013-09-30 13:35:00,72.5,53.4,30.00,ESE,108,1.0,5.0,51,0.00,,---,0.00,VWS V14.01,2013-09-30 17:35:00,
2013-09-30 13:38:00,72.7,52.5,30.00,SSE,153,1.0,2.0,49,0.00,,---,0.00,VWS V14.01,2013-09-30 17:38:00,
2013-09-30 13:40:00,72.7,51.9,30.00,South,180,0.0,3.0,48,0.00,,---,0.00,VWS V14.01,2013-09-30 17:40:00,
2013-09-30 13:43:00,72.8,52.0,30.00,East,96,3.0,3.0,48,0.00,,---,0.00,VWS V14.01,2013-09-30 17:43:00,
2013-09-30 13:45:00,72.8,52.5,29.99,NNE,32,0.0,3.0,49,0.00,,---,0.00,VWS V14.01,2013-09-30 17:45:00,
2013-09-30 13:48:00,73.2,52.4,29.99,NW,306,0.0,4.0,48,0.00,,---,0.00,VWS V14.01,2013-09-30 17:48:00,
2013-09-30 13:50:00,73.2,52.4,29.99,West,265,4.0,4.0,48,0.00,,---,0.00,VWS V14.01,2013-09-30 17:50:00,
2013-09-30 13:53:00,73.7,52.8,29.99,WNW,298,2.0,5.0,48,0.00,,---,0.00,VWS V14.01,2013-09-30 17:53:00,
2013-09-30 13:55:00,73.7,51.7,29.99,NNW,327,2.0,5.0,46,0.00,,---,0.00,VWS V14.01,2013-09-30 17:55:00,
2013-09-30 13:58:00,73.9,51.8,29.99,WNW,292,0.0,5.0,46,0.00,,---,0.00,VWS V14.01,2013-09-30 17:58:00,
2013-09-30 14:00:00,74.0,52.5,29.99,WNW,292,0.0,5.0,47,0.00,,---,0.00,VWS V14.01,2013-09-30 18:00:00,
2013-09-30 14:03:00,74.2,50.3,29.99,WSW,250,2.0,4.0,43,0.00,,---,0.00,VWS V14.01,2013-09-30 18:03:00,
2013-09-30 14:05:00,74.2,50.9,29.99,WNW,293,3.0,4.0,44,0.00,,---,0.00,VWS V14.01,2013-09-30 18:05:00,
2013-09-30 14:08:00,74.4,51.1,29.99,West,281,0.0,4.0,44,0.00,,---,0.00,VWS V14.01,2013-09-30 18:08:00,
2013-09-30 14:10:00,74.4,51.1,29.98,WNW,299,1.0,4.0,44,0.00,,---,0.00,VWS V14.01,2013-09-30 18:10:00,
2013-09-30 14:13:00,74.4,50.5,29.98,WSW,250,0.0,5.0,43,0.00,,---,0.00,VWS V14.01,2013-09-30 18:13:00,
2013-09-30 14:15:00,74.6,51.3,29.98,WSW,243,5.0,5.0,44,0.00,,---,0.00,VWS V14.01,2013-09-30 18:15:00,
2013-09-30 14:18:00,74.6,51.3,29.98,West,278,0.0,6.0,44,0.00,,---,0.00,VWS V14.01,2013-09-30 18:18:00,
2013-09-30 14:20:00,74.6,50.7,29.98,WSW,248,2.0,6.0,43,0.00,,---,0.00,VWS V14.01,2013-09-30 18:20:00,
2013-09-30 14:23:00,74.6,50.7,29.98,SW,225,3.0,4.0,43,0.00,,---,0.00,VWS V14.01,2013-09-30 18:23:00,
2013-09-30 14:25:00,74.6,50.7,29.98,SW,231,4.0,4.0,43,0.00,,---,0.00,VWS V14.01,2013-09-30 18:25:00,
2013-09-30 14:28:00,74.4,51.1,29.98,ESE,106,0.0,4.0,44,0.00,,---,0.00,VWS V14.01,2013-09-30 18:28:00,
2013-09-30 14:30:00,74.4,50.5,29.98,ESE,106,0.0,4.0,43,0.00,,---,0.00,VWS V14.01,2013-09-30 18:30:00,
2013-09-30 14:33:00,74.2,50.9,29.98,SSE,162,0.0,2.0,44,0.00,,---,0.00,VWS V14.01,2013-09-30 18:33:00,
2013-09-30 14:35:00,74.2,50.9,29.98,SSE,162,0.0,2.0,44,0.00,,---,0.00,VWS V14.01,2013-09-30 18:35:00,
2013-09-30 14:38:00,74.2,52.1,29.97,West,279,2.0,2.0,46,0.00,,---,0.00,VWS V14.01,2013-09-30 18:38:00,
2013-09-30 14:40:00,74.4,51.7,29.97,NNE,13,1.0,3.0,45,0.00,,---,0.00,VWS V14.01,2013-09-30 18:40:00,
2013-09-30 14:43:00,74.6,51.9,29.97,WNW,296,1.0,4.0,45,0.00,,---,0.00,VWS V14.01,2013-09-30 18:43:00,
2013-09-30 14:45:00,74.6,51.9,29.97,NW,319,2.0,4.0,45,0.00,,---,0.00,VWS V14.01,2013-09-30 18:45:00,
2013-09-30 14:48:00,74.6,50.7,29.97,ENE,74,4.0,4.0,43,0.00,,---,0.00,VWS V14.01,2013-09-30 18:48:00,
2013-09-30 14:50:00,74.6,51.3,29.97,East,83,0.0,4.0,44,0.00,,---,0.00,VWS V14.01,2013-09-30 18:50:00,
2013-09-30 14:53:00,74.6,51.9,29.97,West,271,2.0,4.0,45,0.00,,---,0.00,VWS V14.01,2013-09-30 18:53:00,
2013-09-30 14:55:00,74.7,51.4,29.97,WNW,287,1.0,4.0,44,0.00,,---,0.00,VWS V14.01,2013-09-30 18:55:00,
2013-09-30 14:58:00,74.7,50.7,29.96,WNW,293,1.0,3.0,43,0.00,,---,0.00,VWS V14.01,2013-09-30 18:58:00,
2013-09-30 15:00:00,74.7,50.7,29.96,North,360,1.0,4.0,43,0.00,,---,0.00,VWS V14.01,2013-09-30 19:00:00,
2013-09-30 15:03:00,74.7,52.0,29.96,North,360,0.0,2.0,45,0.00,,---,0.00,VWS V14.01,2013-09-30 19:03:00,
2013-09-30 15:05:00,74.7,51.4,29.96,North,360,1.0,2.0,44,0.00,,---,0.00,VWS V14.01,2013-09-30 19:05:00,
2013-09-30 15:08:00,74.9,50.3,29.96,WSW,240,5.0,5.0,42,0.00,,---,0.00,VWS V14.01,2013-09-30 19:08:00,
2013-09-30 15:10:00,74.9,50.3,29.96,West,259,4.0,5.0,42,0.00,,---,0.00,VWS V14.01,2013-09-30 19:10:00,
2013-09-30 15:13:00,74.9,50.3,29.96,North,11,1.0,5.0,42,0.00,,---,0.00,VWS V14.01,2013-09-30 19:13:00,
2013-09-30 15:15:00,74.9,50.9,29.96,North,11,1.0,5.0,43,0.00,,---,0.00,VWS V14.01,2013-09-30 19:15:00,
2013-09-30 15:18:00,74.9,50.9,29.96,NW,318,0.0,4.0,43,0.00,,---,0.00,VWS V14.01,2013-09-30 19:18:00,
2013-09-30 15:20:00,74.9,50.9,29.96,NE,53,0.0,4.0,43,0.00,,---,0.00,VWS V14.01,2013-09-30 19:20:00,
2013-09-30 15:23:00,74.9,51.5,29.95,WNW,298,1.0,3.0,44,0.00,,---,0.00,VWS V14.01,2013-09-30 19:23:00,
2013-09-30 15:25:00,75.1,51.1,29.95,WNW,284,0.0,3.0,43,0.00,,---,0.00,VWS V14.01,2013-09-30 19:25:00,
2013-09-30 15:28:00,75.1,51.1,29.95,SW,234,5.0,5.0,43,0.00,,---,0.00,VWS V14.01,2013-09-30 19:28:00,
2013-09-30 15:30:00,75.1,51.1,29.95,SW,229,5.0,6.0,43,0.00,,---,0.00,VWS V14.01,2013-09-30 19:30:00,
2013-09-30 15:33:00,75.3,51.3,29.95,North,355,1.0,6.0,43,0.00,,---,0.00,VWS V14.01,2013-09-30 19:33:00,
2013-09-30 15:35:00,75.3,50.7,29.95,North,355,1.0,6.0,42,0.00,,---,0.00,VWS V14.01,2013-09-30 19:35:00,
2013-09-30 15:38:00,75.4,51.4,29.95,NNE,24,2.0,3.0,43,0.00,,---,0.00,VWS V14.01,2013-09-30 19:38:00,
2013-09-30 15:40:00,75.3,51.3,29.95,ENE,70,4.0,4.0,43,0.00,,---,0.00,VWS V14.01,2013-09-30 19:40:00,
2013-09-30 15:43:00,75.3,51.3,29.95,East,88,3.0,7.0,43,0.00,,---,0.00,VWS V14.01,2013-09-30 19:43:00,
2013-09-30 15:45:00,75.3,51.3,29.95,East,89,0.0,7.0,43,0.00,,---,0.00,VWS V14.01,2013-09-30 19:45:00,
2013-09-30 15:48:00,75.3,51.3,29.95,NW,305,0.0,2.0,43,0.00,,---,0.00,VWS V14.01,2013-09-30 19:48:00,
2013-09-30 15:50:00,75.3,51.3,29.95,NW,308,2.0,2.0,43,0.00,,---,0.00,VWS V14.01,2013-09-30 19:50:00,
2013-09-30 15:53:00,75.3,51.9,29.95,North,351,0.0,5.0,44,0.00,,---,0.00,VWS V14.01,2013-09-30 19:53:00,
2013-09-30 15:55:00,75.3,51.3,29.95,WSW,255,2.0,5.0,43,0.00,,---,0.00,VWS V14.01,2013-09-30 19:55:00,
2013-09-30 15:58:00,75.4,52.0,29.95,NW,304,2.0,3.0,44,0.00,,---,0.00,VWS V14.01,2013-09-30 19:58:00,
2013-09-30 16:00:00,75.4,51.4,29.95,NW,310,0.0,3.0,43,0.00,,---,0.00,VWS V14.01,2013-09-30 20:00:00,
2013-09-30 16:03:00,75.4,51.4,29.95,ENE,57,0.0,4.0,43,0.00,,---,0.00,VWS V14.01,2013-09-30 20:03:00,
2013-09-30 16:05:00,75.4,52.0,29.95,ENE,57,0.0,4.0,44,0.00,,---,0.00,VWS V14.01,2013-09-30 20:05:00,
2013-09-30 16:08:00,75.4,50.7,29.95,ENE,57,0.0,2.0,42,0.00,,---,0.00,VWS V14.01,2013-09-30 20:08:00,
2013-09-30 16:10:00,75.4,50.7,29.95,WSW,240,1.0,2.0,42,0.00,,---,0.00,VWS V14.01,2013-09-30 20:10:00,
2013-09-30 16:13:00,75.4,51.4,29.95,WSW,250,1.0,4.0,43,0.00,,---,0.00,VWS V14.01,2013-09-30 20:13:00,
2013-09-30 16:15:00,75.4,52.0,29.95,WSW,250,0.0,4.0,44,0.00,,---,0.00,VWS V14.01,2013-09-30 20:15:00,
2013-09-30 16:18:00,75.6,52.2,29.95,WNW,290,3.0,5.0,44,0.00,,---,0.00,VWS V14.01,2013-09-30 20:18:00,
2013-09-30 16:20:00,75.6,52.2,29.95,West,271,4.0,5.0,44,0.00,,---,0.00,VWS V14.01,2013-09-30 20:20:00,
2013-09-30 16:23:00,75.8,52.4,29.95,SW,223,1.0,6.0,44,0.00,,---,0.00,VWS V14.01,2013-09-30 20:23:00,
2013-09-30 16:25:00,76.0,51.9,29.94,ESE,106,2.0,6.0,43,0.00,,---,0.00,VWS V14.01,2013-09-30 20:25:00,
2013-09-30 16:28:00,75.8,51.1,29.95,ESE,105,0.0,2.0,42,0.00,,---,0.00,VWS V14.01,2013-09-30 20:28:00,
2013-09-30 16:30:00,75.8,51.1,29.94,ESE,105,1.0,2.0,42,0.00,,---,0.00,VWS V14.01,2013-09-30 20:30:00,
2013-09-30 16:33:00,75.8,51.7,29.94,ESE,105,0.0,2.0,43,0.00,,---,0.00,VWS V14.01,2013-09-30 20:33:00,
2013-09-30 16:35:00,75.8,51.7,29.94,ESE,105,2.0,2.0,43,0.00,,---,0.00,VWS V14.01,2013-09-30 20:35:00,
2013-09-30 16:38:00,75.6,50.9,29.94,NE,44,0.0,5.0,42,0.00,,---,0.00,VWS V14.01,2013-09-30 20:38:00,
2013-09-30 16:40:00,75.6,51.5,29.94,NE,37,1.0,5.0,43,0.00,,---,0.00,VWS V14.01,2013-09-30 20:40:00,
2013-09-30 16:43:00,75.4,50.7,29.94,ENE,67,3.0,5.0,42,0.00,,---,0.00,VWS V14.01,2013-09-30 20:43:00,
2013-09-30 16:45:00,75.4,51.4,29.94,SE,136,2.0,5.0,43,0.00,,---,0.00,VWS V14.01,2013-09-30 20:45:00,
2013-09-30 16:48:00,75.3,52.5,29.94,ESE,123,1.0,4.0,45,0.00,,---,0.00,VWS V14.01,2013-09-30 20:48:00,
2013-09-30 16:50:00,75.3,52.5,29.94,SSE,159,0.0,4.0,45,0.00,,---,0.00,VWS V14.01,2013-09-30 20:50:00,
2013-09-30 16:53:00,75.1,52.3,29.95,SE,138,2.0,3.0,45,0.00,,---,0.00,VWS V14.01,2013-09-30 20:53:00,
2013-09-30 16:55:00,75.1,51.1,29.95,SE,138,0.0,3.0,43,0.00,,---,0.00,VWS V14.01,2013-09-30 20:55:00,
2013-09-30 16:58:00,75.1,51.1,29.95,ESE,106,1.0,4.0,43,0.00,,---,0.00,VWS V14.01,2013-09-30 20:58:00,
2013-09-30 17:00:00,75.1,51.1,29.95,East,88,2.0,4.0,43,0.00,,---,0.00,VWS V14.01,2013-09-30 21:00:00,
2013-09-30 17:03:00,74.9,50.9,29.94,East,91,0.0,3.0,43,0.00,,---,0.00,VWS V14.01,2013-09-30 21:03:00,
2013-09-30 17:05:00,74.9,50.3,29.95,East,91,0.0,3.0,42,0.00,,---,0.00,VWS V14.01,2013-09-30 21:05:00,
2013-09-30 17:08:00,74.9,51.5,29.94,ENE,59,2.0,3.0,44,0.00,,---,0.00,VWS V14.01,2013-09-30 21:08:00,
2013-09-30 17:10:00,74.9,51.5,29.95,NE,56,0.0,3.0,44,0.00,,---,0.00,VWS V14.01,2013-09-30 21:10:00,
2013-09-30 17:13:00,74.7,51.4,29.94,ENE,61,1.0,5.0,44,0.00,,---,0.00,VWS V14.01,2013-09-30 21:13:00,
2013-09-30 17:15:00,74.7,51.4,29.95,ENE,61,1.0,5.0,44,0.00,,---,0.00,VWS V14.01,2013-09-30 21:15:00,
2013-09-30 17:18:00,74.7,51.4,29.95,ENE,61,1.0,2.0,44,0.00,,---,0.00,VWS V14.01,2013-09-30 21:18:00,
2013-09-30 17:20:00,74.7,51.4,29.95,ENE,57,0.0,2.0,44,0.00,,---,0.00,VWS V14.01,2013-09-30 21:20:00,
2013-09-30 17:23:00,74.9,52.2,29.95,ENE,57,1.0,1.0,45,0.00,,---,0.00,VWS V14.01,2013-09-30 21:23:00,
2013-09-30 17:25:00,74.9,52.8,29.95,ENE,57,1.0,1.0,46,0.00,,---,0.00,VWS V14.01,2013-09-30 21:25:00,
2013-09-30 17:29:00,74.9,52.2,29.95,ENE,57,0.0,1.0,45,0.00,,---,0.00,VWS V14.01,2013-09-30 21:29:00,
2013-09-30 17:30:00,74.9,52.2,29.95,ENE,59,0.0,1.0,45,0.00,,---,0.00,VWS V14.01,2013-09-30 21:30:00,
2013-09-30 17:34:00,74.9,52.8,29.95,ESE,106,0.0,1.0,46,0.00,,---,0.00,VWS V14.01,2013-09-30 21:34:00,
2013-09-30 17:35:00,74.9,52.8,29.95,ESE,106,0.0,1.0,46,0.00,,---,0.00,VWS V14.01,2013-09-30 21:35:00,
2013-09-30 17:39:00,74.9,52.2,29.95,NNE,30,1.0,2.0,45,0.00,,---,0.00,VWS V14.01,2013-09-30 21:39:00,
2013-09-30 17:40:00,74.9,52.2,29.95,NNE,30,1.0,2.0,45,0.00,,---,0.00,VWS V14.01,2013-09-30 21:40:00,
2013-09-30 17:44:00,74.7,52.0,29.95,NNE,30,0.0,2.0,45,0.00,,---,0.00,VWS V14.01,2013-09-30 21:44:00,
2013-09-30 17:45:00,74.7,52.0,29.95,NNE,30,0.0,2.0,45,0.00,,---,0.00,VWS V14.01,2013-09-30 21:45:00,
2013-09-30 17:49:00,74.7,52.6,29.95,NE,37,0.0,1.0,46,0.00,,---,0.00,VWS V14.01,2013-09-30 21:49:00,
2013-09-30 17:50:00,74.7,52.6,29.95,NE,37,0.0,1.0,46,0.00,,---,0.00,VWS V14.01,2013-09-30 21:50:00,
2013-09-30 17:54:00,74.6,52.5,29.95,NNW,341,0.0,2.0,46,0.00,,---,0.00,VWS V14.01,2013-09-30 21:54:00,
2013-09-30 17:55:00,74.6,52.5,29.95,NNW,335,0.0,2.0,46,0.00,,---,0.00,VWS V14.01,2013-09-30 21:55:00,
2013-09-30 17:59:00,74.6,53.1,29.95,West,261,2.0,2.0,47,0.00,,---,0.00,VWS V14.01,2013-09-30 21:59:00,
2013-09-30 18:00:00,74.6,53.6,29.95,West,261,0.0,2.0,48,0.00,,---,0.00,VWS V14.01,2013-09-30 22:00:00,
2013-09-30 18:04:00,74.4,52.3,29.95,ENE,74,3.0,3.0,46,0.00,,---,0.00,VWS V14.01,2013-09-30 22:04:00,
2013-09-30 18:05:00,74.4,52.9,29.95,ENE,73,1.0,3.0,47,0.00,,---,0.00,VWS V14.01,2013-09-30 22:05:00,
2013-09-30 18:09:00,74.2,52.7,29.95,ENE,73,1.0,2.0,47,0.00,,---,0.00,VWS V14.01,2013-09-30 22:09:00,
2013-09-30 18:10:00,74.0,52.5,29.95,ENE,73,0.0,2.0,47,0.00,,---,0.00,VWS V14.01,2013-09-30 22:10:00,
2013-09-30 18:14:00,73.9,53.0,29.95,SSE,161,4.0,4.0,48,0.00,,---,0.00,VWS V14.01,2013-09-30 22:14:00,
2013-09-30 18:15:00,73.9,53.0,29.95,SSE,149,2.0,4.0,48,0.00,,---,0.00,VWS V14.01,2013-09-30 22:15:00,
2013-09-30 18:19:00,73.7,53.4,29.95,SE,140,1.0,4.0,49,0.00,,---,0.00,VWS V14.01,2013-09-30 22:19:00,
2013-09-30 18:20:00,73.5,53.2,29.95,SE,140,1.0,4.0,49,0.00,,---,0.00,VWS V14.01,2013-09-30 22:20:00,
2013-09-30 18:24:00,73.3,53.0,29.96,SE,130,3.0,3.0,49,0.00,,---,0.00,VWS V14.01,2013-09-30 22:24:00,
2013-09-30 18:25:00,73.2,52.9,29.96,ESE,113,1.0,3.0,49,0.00,,---,0.00,VWS V14.01,2013-09-30 22:25:00,
2013-09-30 18:29:00,73.0,53.3,29.96,SE,130,1.0,3.0,50,0.00,,---,0.00,VWS V14.01,2013-09-30 22:29:00,
2013-09-30 18:30:00,72.8,53.1,29.96,SE,130,0.0,3.0,50,0.00,,---,0.00,VWS V14.01,2013-09-30 22:30:00,
2013-09-30 18:34:00,72.7,53.0,29.96,SE,130,1.0,2.0,50,0.00,,---,0.00,VWS V14.01,2013-09-30 22:34:00,
2013-09-30 18:35:00,72.5,52.8,29.96,SE,130,1.0,2.0,50,0.00,,---,0.00,VWS V14.01,2013-09-30 22:35:00,
2013-09-30 18:39:00,72.1,53.0,29.96,SE,132,2.0,4.0,51,0.00,,---,0.00,VWS V14.01,2013-09-30 22:39:00,
2013-09-30 18:40:00,72.1,53.0,29.96,SE,132,0.0,4.0,51,0.00,,---,0.00,VWS V14.01,2013-09-30 22:40:00,
2013-09-30 18:44:00,71.8,53.2,29.96,SE,138,0.0,3.0,52,0.00,,---,0.00,VWS V14.01,2013-09-30 22:44:00,
2013-09-30 18:45:00,71.8,53.8,29.96,SE,138,1.0,3.0,53,0.00,,---,0.00,VWS V14.01,2013-09-30 22:45:00,
2013-09-30 18:49:00,71.5,54.0,29.96,SE,138,0.0,1.0,54,0.00,,---,0.00,VWS V14.01,2013-09-30 22:49:00,
2013-09-30 18:50:00,71.5,54.0,29.96,SE,138,0.0,1.0,54,0.00,,---,0.00,VWS V14.01,2013-09-30 22:50:00,
2013-09-30 18:54:00,71.1,53.6,29.96,SE,138,0.0,0.0,54,0.00,,---,0.00,VWS V14.01,2013-09-30 22:54:00,
2013-09-30 18:55:00,71.1,53.6,29.96,SE,138,0.0,0.0,54,0.00,,---,0.00,VWS V14.01,2013-09-30 22:55:00,
2013-09-30 18:59:00,70.8,53.3,29.97,SE,138,0.0,0.0,54,0.00,,---,0.00,VWS V14.01,2013-09-30 22:59:00,
2013-09-30 19:00:00,70.8,53.3,29.97,SE,138,0.0,0.0,54,0.00,,---,0.00,VWS V14.01,2013-09-30 23:00:00,
2013-09-30 19:04:00,70.3,54.4,29.97,SE,138,0.0,0.0,57,0.00,,---,0.00,VWS V14.01,2013-09-30 23:04:00,
2013-09-30 19:05:00,70.3,54.4,29.97,SE,138,0.0,0.0,57,0.00,,---,0.00,VWS V14.01,2013-09-30 23:05:00,
2013-09-30 19:09:00,69.6,54.7,29.97,SE,138,0.0,0.0,59,0.00,,---,0.00,VWS V14.01,2013-09-30 23:09:00,
2013-09-30 19:10:00,69.4,54.5,29.97,SE,138,0.0,0.0,59,0.00,,---,0.00,VWS V14.01,2013-09-30 23:10:00,
2013-09-30 19:14:00,68.9,54.0,29.97,SE,138,0.0,0.0,59,0.00,,---,0.00,VWS V14.01,2013-09-30 23:14:00,
2013-09-30 19:15:00,68.8,53.9,29.97,SE,138,0.0,0.0,59,0.00,,---,0.00,VWS V14.01,2013-09-30 23:15:00,
2013-09-30 19:19:00,68.3,53.9,29.98,SE,138,0.0,0.0,60,0.00,,---,0.00,VWS V14.01,2013-09-30 23:19:00,
2013-09-30 19:20:00,68.1,54.2,29.98,SE,138,0.0,0.0,61,0.00,,---,0.00,VWS V14.01,2013-09-30 23:20:00,
2013-09-30 19:24:00,67.6,54.1,29.98,SE,138,0.0,0.0,62,0.00,,---,0.00,VWS V14.01,2013-09-30 23:24:00,
2013-09-30 19:25:00,67.6,54.1,29.98,SE,138,0.0,0.0,62,0.00,,---,0.00,VWS V14.01,2013-09-30 23:25:00,
2013-09-30 19:29:00,67.1,54.5,29.98,SE,138,0.0,0.0,64,0.00,,---,0.00,VWS V14.01,2013-09-30 23:29:00,
2013-09-30 19:30:00,67.1,54.5,29.98,SE,138,0.0,0.0,64,0.00,,---,0.00,VWS V14.01,2013-09-30 23:30:00,
2013-09-30 19:34:00,66.6,54.5,29.98,SE,138,0.0,0.0,65,0.00,,---,0.00,VWS V14.01,2013-09-30 23:34:00,
2013-09-30 19:35:00,66.6,54.5,29.98,SE,138,0.0,0.0,65,0.00,,---,0.00,VWS V14.01,2013-09-30 23:35:00,
2013-09-30 19:39:00,66.3,54.6,29.99,SE,138,0.0,0.0,66,0.00,,---,0.00,VWS V14.01,2013-09-30 23:39:00,
2013-09-30 19:40:00,66.3,54.6,29.99,SE,138,0.0,0.0,66,0.00,,---,0.00,VWS V14.01,2013-09-30 23:40:00,
2013-09-30 19:44:00,66.1,54.4,29.99,SE,138,0.0,0.0,66,0.00,,---,0.00,VWS V14.01,2013-09-30 23:44:00,
2013-09-30 19:45:00,66.1,54.4,29.99,SE,138,0.0,0.0,66,0.00,,---,0.00,VWS V14.01,2013-09-30 23:45:00,
2013-09-30 19:49:00,65.8,54.5,29.98,SE,138,0.0,0.0,67,0.00,,---,0.00,VWS V14.01,2013-09-30 23:49:00,
2013-09-30 19:50:00,65.8,54.5,29.98,SE,138,0.0,0.0,67,0.00,,---,0.00,VWS V14.01,2013-09-30 23:50:00,
2013-09-30 19:54:00,65.6,54.4,29.99,SE,138,0.0,0.0,67,0.00,,---,0.00,VWS V14.01,2013-09-30 23:54:00,
2013-09-30 19:55:00,65.6,54.4,29.99,SE,138,0.0,0.0,67,0.00,,---,0.00,VWS V14.01,2013-09-30 23:55:00,
2013-09-30 19:59:00,65.5,54.7,29.99,SE,138,0.0,0.0,68,0.00,,---,0.00,VWS V14.01,2013-09-30 23:59:00,
2013-09-30 20:00:00,65.5,54.7,29.99,SE,138,0.0,0.0,68,0.00,,---,0.00,VWS V14.01,2013-10-01 00:00:00,
2013-09-30 20:04:00,65.3,54.5,29.99,SE,138,0.0,0.0,68,0.00,,---,0.00,VWS V14.01,2013-10-01 00:04:00,
2013-09-30 20:05:00,65.3,54.5,29.99,SE,138,0.0,0.0,68,0.00,,---,0.00,VWS V14.01,2013-10-01 00:05:00,
2013-09-30 20:09:00,65.2,54.8,29.99,SE,138,0.0,0.0,69,0.00,,---,0.00,VWS V14.01,2013-10-01 00:09:00,
2013-09-30 20:10:00,65.2,54.8,29.99,SE,138,0.0,0.0,69,0.00,,---,0.00,VWS V14.01,2013-10-01 00:10:00,
2013-09-30 20:14:00,65.0,54.6,29.99,SE,138,0.0,0.0,69,0.00,,---,0.00,VWS V14.01,2013-10-01 00:14:00,
2013-09-30 20:15:00,65.0,54.6,29.99,SE,138,0.0,0.0,69,0.00,,---,0.00,VWS V14.01,2013-10-01 00:15:00,
2013-09-30 20:19:00,64.8,54.8,29.99,SE,138,0.0,0.0,70,0.00,,---,0.00,VWS V14.01,2013-10-01 00:19:00,
2013-09-30 20:20:00,64.8,54.8,29.99,SE,138,0.0,0.0,70,0.00,,---,0.00,VWS V14.01,2013-10-01 00:20:00,
2013-09-30 20:25:00,64.7,55.1,29.99,SE,138,0.0,0.0,71,0.00,,---,0.00,VWS V14.01,2013-10-01 00:25:00,
2013-09-30 20:30:00,64.5,54.9,29.99,SE,138,0.0,0.0,71,0.00,,---,0.00,VWS V14.01,2013-10-01 00:30:00,
2013-09-30 20:35:00,64.3,54.7,29.99,SE,138,0.0,0.0,71,0.00,,---,0.00,VWS V14.01,2013-10-01 00:35:00,
2013-09-30 20:40:00,64.2,55.0,29.99,SE,138,0.0,0.0,72,0.00,,---,0.00,VWS V14.01,2013-10-01 00:40:00,
2013-09-30 20:45:00,64.0,54.8,29.99,SE,138,0.0,0.0,72,0.00,,---,0.00,VWS V14.01,2013-10-01 00:45:00,
2013-09-30 20:50:00,63.9,55.1,30.00,SE,138,0.0,0.0,73,0.00,,---,0.00,VWS V14.01,2013-10-01 00:50:00,
2013-09-30 20:55:00,63.5,54.7,30.00,SE,138,0.0,0.0,73,0.00,,---,0.00,VWS V14.01,2013-10-01 00:55:00,
2013-09-30 21:00:00,63.4,55.0,30.00,SE,138,0.0,0.0,74,0.00,,---,0.00,VWS V14.01,2013-10-01 01:00:00,
2013-09-30 21:05:00,63.1,54.7,30.00,SE,138,0.0,0.0,74,0.00,,---,0.00,VWS V14.01,2013-10-01 01:05:00,
2013-09-30 21:10:00,62.7,54.3,30.00,SE,138,0.0,0.0,74,0.00,,---,0.00,VWS V14.01,2013-10-01 01:10:00,
2013-09-30 21:15:00,62.6,54.2,30.00,SE,138,0.0,0.0,74,0.00,,---,0.00,VWS V14.01,2013-10-01 01:15:00,
2013-09-30 21:20:00,62.4,54.8,30.00,SE,138,0.0,0.0,76,0.00,,---,0.00,VWS V14.01,2013-10-01 01:20:00,
2013-09-30 21:25:00,62.0,54.7,30.00,SE,138,0.0,0.0,77,0.00,,---,0.00,VWS V14.01,2013-10-01 01:25:00,
2013-09-30 21:30:00,61.6,54.7,30.00,SE,138,0.0,0.0,78,0.00,,---,0.00,VWS V14.01,2013-10-01 01:30:00,
2013-09-30 21:35:00,61.5,54.9,30.00,SE,138,0.0,0.0,79,0.00,,---,0.00,VWS V14.01,2013-10-01 01:35:00,
2013-09-30 21:40:00,61.2,55.0,30.00,SE,138,0.0,0.0,80,0.00,,---,0.00,VWS V14.01,2013-10-01 01:40:00,
2013-09-30 21:45:00,60.9,55.0,30.00,SE,138,0.0,0.0,81,0.00,,---,0.00,VWS V14.01,2013-10-01 01:45:00,
2013-09-30 21:50:00,60.5,54.7,30.00,SE,138,0.0,0.0,81,0.00,,---,0.00,VWS V14.01,2013-10-01 01:50:00,
2013-09-30 21:55:00,60.4,54.9,30.00,SE,138,0.0,0.0,82,0.00,,---,0.00,VWS V14.01,2013-10-01 01:55:00,
2013-09-30 22:00:00,60.1,54.9,30.00,SE,138,0.0,0.0,83,0.00,,---,0.00,VWS V14.01,2013-10-01 02:00:00,
2013-09-30 22:05:00,59.9,54.7,30.00,SE,138,0.0,0.0,83,0.00,,---,0.00,VWS V14.01,2013-10-01 02:05:00,
2013-09-30 22:10:00,59.8,54.6,30.00,SE,138,0.0,0.0,83,0.00,,---,0.00,VWS V14.01,2013-10-01 02:10:00,
2013-09-30 22:15:00,59.6,54.4,30.00,SE,138,0.0,0.0,83,0.00,,---,0.00,VWS V14.01,2013-10-01 02:15:00,
2013-09-30 22:20:00,59.5,54.7,30.00,SE,138,0.0,0.0,84,0.00,,---,0.00,VWS V14.01,2013-10-01 02:20:00,
2013-09-30 22:25:00,59.3,54.8,30.00,SE,138,0.0,0.0,85,0.00,,---,0.00,VWS V14.01,2013-10-01 02:25:00,
2013-09-30 22:30:00,59.2,54.7,30.00,SE,138,0.0,0.0,85,0.00,,---,0.00,VWS V14.01,2013-10-01 02:30:00,
2013-09-30 22:35:00,59.0,54.5,30.00,SE,138,0.0,0.0,85,0.00,,---,0.00,VWS V14.01,2013-10-01 02:35:00,
2013-09-30 22:40:00,58.9,54.7,30.00,SE,138,0.0,0.0,86,0.00,,---,0.00,VWS V14.01,2013-10-01 02:40:00,
2013-09-30 22:45:00,58.6,54.8,30.00,SE,138,0.0,0.0,87,0.00,,---,0.00,VWS V14.01,2013-10-01 02:45:00,
2013-09-30 22:50:00,58.4,54.5,30.00,SE,138,0.0,0.0,87,0.00,,---,0.00,VWS V14.01,2013-10-01 02:50:00,
2013-09-30 22:55:00,58.3,54.5,30.00,SE,138,0.0,0.0,87,0.00,,---,0.00,VWS V14.01,2013-10-01 02:55:00,
2013-09-30 23:00:00,58.1,54.3,29.99,SE,138,0.0,0.0,87,0.00,,---,0.00,VWS V14.01,2013-10-01 03:00:00,
2013-09-30 23:05:00,58.1,54.3,30.00,SE,138,0.0,0.0,87,0.00,,---,0.00,VWS V14.01,2013-10-01 03:05:00,
2013-09-30 23:06:00,58.0,54.2,30.00,SE,138,0.0,0.0,87,0.00,,---,0.00,VWS V14.01,2013-10-01 03:06:00,
2013-09-30 23:10:00,58.0,54.5,30.00,SE,138,0.0,0.0,88,0.00,,---,0.00,VWS V14.01,2013-10-01 03:10:00,
2013-09-30 23:11:00,58.0,54.8,30.00,SE,138,0.0,0.0,89,0.00,,---,0.00,VWS V14.01,2013-10-01 03:11:00,
2013-09-30 23:15:00,57.8,54.6,30.00,SE,138,0.0,0.0,89,0.00,,---,0.00,VWS V14.01,2013-10-01 03:15:00,
2013-09-30 23:16:00,57.8,54.6,30.00,SE,138,0.0,0.0,89,0.00,,---,0.00,VWS V14.01,2013-10-01 03:16:00,
2013-09-30 23:20:00,57.8,54.6,30.00,SE,138,0.0,0.0,89,0.00,,---,0.00,VWS V14.01,2013-10-01 03:20:00,
2013-09-30 23:21:00,57.8,54.6,30.00,SE,138,0.0,0.0,89,0.00,,---,0.00,VWS V14.01,2013-10-01 03:21:00,
2013-09-30 23:25:00,57.6,54.7,30.00,SE,138,0.0,0.0,90,0.00,,---,0.00,VWS V14.01,2013-10-01 03:25:00,
2013-09-30 23:26:00,57.6,54.7,30.00,SE,138,0.0,0.0,90,0.00,,---,0.00,VWS V14.01,2013-10-01 03:26:00,
2013-09-30 23:30:00,57.6,54.7,30.00,SE,138,0.0,1.0,90,0.00,,---,0.00,VWS V14.01,2013-10-01 03:30:00,
2013-09-30 23:31:00,57.6,54.7,30.00,SE,138,0.0,0.0,90,0.00,,---,0.00,VWS V14.01,2013-10-01 03:31:00,
2013-09-30 23:35:00,57.8,55.2,30.00,SW,234,0.0,2.0,91,0.00,,---,0.00,VWS V14.01,2013-10-01 03:35:00,
2013-09-30 23:36:00,57.8,54.9,30.00,SW,234,0.0,0.0,90,0.00,,---,0.00,VWS V14.01,2013-10-01 03:36:00,
2013-09-30 23:40:00,57.8,54.9,30.00,SW,234,0.0,1.0,90,0.00,,---,0.00,VWS V14.01,2013-10-01 03:40:00,
2013-09-30 23:41:00,57.8,54.9,30.00,SW,234,0.0,0.0,90,0.00,,---,0.00,VWS V14.01,2013-10-01 03:41:00,
2013-09-30 23:45:00,57.8,54.9,30.00,SW,234,0.0,0.0,90,0.00,,---,0.00,VWS V14.01,2013-10-01 03:45:00,
2013-09-30 23:46:00,57.8,54.9,30.00,SW,234,0.0,0.0,90,0.00,,---,0.00,VWS V14.01,2013-10-01 03:46:00,
2013-09-30 23:50:00,57.8,54.9,30.00,SW,234,1.0,1.0,90,0.00,,---,0.00,VWS V14.01,2013-10-01 03:50:00,
2013-09-30 23:51:00,57.8,54.9,30.00,WSW,240,2.0,2.0,90,0.00,,---,0.00,VWS V14.01,2013-10-01 03:51:00,
2013-09-30 23:55:00,57.6,54.7,30.00,WSW,240,0.0,2.0,90,0.00,,---,0.00,VWS V14.01,2013-10-01 03:55:00,
2013-09-30 23:56:00,57.6,54.7,30.00,WSW,240,1.0,2.0,90,0.00,,---,0.00,VWS V14.01,2013-10-01 03:56:00,